{"data":{"norad_id":64357,"epoch":"2026-09-20T09:17:20.518656Z","epoch_age_seconds":144311,"freshness":"FRESH","line1":"1 64357U 25126P   26263.38704304  .00015444  00000+0  52662-3 0  9990","line2":"2 64357  70.0018 261.2417 0003885 271.2287  88.8444 15.30429854 69900","mean_motion":15.30429854,"eccentricity":0.0003885,"inclination_deg":70.0018,"raan_deg":261.2417,"arg_perigee_deg":271.2287,"mean_anomaly_deg":88.8444,"bstar":0.00052662,"rev_number":6990,"period_min":94.091212102035,"perigee_km":471.86659202046,"apogee_km":477.19111338801,"semimajor_km":6852.6658527042,"source":"CELESTRAK","updated_at":"2026-09-21T09:00:35.318522Z"}}